FW7989 Weather Reports


time (UTC)temp
F
wind
direction
speed
knots
gust
knots
rain 1hr
in
rain 24hr
in
rain mn
in
humidity
%
barometer
mb
20260906193106 68 174 6.1 14.8 0.00 0.00 0.00 73 1016.8
20260906192558 68 185 3.5 10.4 0.00 0.00 0.00 71 1016.8
20260906192059 68 153 4.3 10.4 0.00 0.00 0.00 71 1016.8
20260906191623 68 178 4.3 11.3 0.00 0.00 0.00 70 1016.6
20260906191058 69 234 5.2 11.3 0.00 0.00 0.00 69 1016.6
20260906190558 69 167 3.5 9.6 0.00 0.00 0.00 68 1016.5
20260906190108 69 157 3.5 11.3 0.00 0.00 0.00 67 1016.4
20260906185559 69 191 3.5 11.3 0.00 0.00 0.00 67 1016.4
20260906185058 69 117 3.5 10.4 0.00 0.00 0.00 66 1016.3
20260906184604 70 151 3.5 10.4 0.00 0.00 0.00 66 1016.3
20260906184059 70 142 3.5 8.7 0.00 0.00 0.00 65 1016.3
20260906183559 70 182 2.6 9.6 0.00 0.00 0.00 65 1016.3
20260906183108 71 172 3.5 9.6 0.00 0.00 0.00 64 1016.3
20260906182558 71 193 4.3 9.6 0.00 0.00 0.00 63 1016.3
20260906182058 71 180 3.5 9.6 0.00 0.00 0.00 63 1016.3
20260906181603 72 180 4.3 9.6 0.00 0.00 0.00 62 1016.3
20260906181058 72 196 2.6 7.8 0.00 0.00 0.00 62 1016.3
20260906180600 72 168 2.6 6.1 0.00 0.00 0.00 62 1016.2
20260906180119 72 119 1.7 7.8 0.00 0.00 0.00 62 1016.3
20260906175559 72 165 3.5 7.8 0.00 0.00 0.00 61 1016.4
20260906175102 73 144 3.5 9.6 0.00 0.00 0.00 60 1016.5
20260906174604 73 194 3.5 9.6 0.00 0.00 0.00 60 1016.5
20260906174059 73 168 5.2 9.6 0.00 0.00 0.00 59 1016.4
20260906173558 73 207 4.3 9.6 0.00 0.00 0.00 59 1016.5
20260906173108 74 134 5.2 9.6 0.00 0.00 0.00 58 1016.4
20260906172601 74 163 4.3 10.4 0.00 0.00 0.00 58 1016.5
20260906172058 74 190 4.3 11.3 0.00 0.00 0.00 57 1016.5
20260906171607 75 209 5.2 11.3 0.00 0.00 0.00 57 1016.6
20260906171058 75 191 3.5 11.3 0.00 0.00 0.00 57 1016.5
20260906170558 75 166 5.2 13.9 0.00 0.00 0.00 55 1016.4
20260906170124 75 188 6.1 13.9 0.00 0.00 0.00 55 1016.4
20260906165558 76 156 3.5 8.7 0.00 0.00 0.00 55 1016.3
20260906165101 76 218 3.5 10.4 0.00 0.00 0.00 55 1016.3
20260906164603 76 148 5.2 11.3 0.00 0.00 0.00 54 1016.5
20260906164059 76 203 6.1 11.3 0.00 0.00 0.00 53 1016.6
20260906163600 76 171 5.2 9.6 0.00 0.00 0.00 52 1016.6
20260906163114 76 142 4.3 11.3 0.00 0.00 0.00 53 1016.6
20260906162558 77 0 5.2 12.2 0.00 0.00 0.00 50 1016.6
20260906162058 78 186 5.2 12.2 0.00 0.00 0.00 50 1016.6
20260906161604 78 164 6.1 12.2 0.00 0.00 0.00 49 1016.6
20260906161058 79 141 5.2 13.0 0.00 0.00 0.00 49 1016.8
20260906160558 78 231 6.1 13.0 0.00 0.00 0.00 51 1017.0
20260906160106 77 161 6.1 13.0 0.00 0.00 0.00 50 1016.9
20260906155558 77 180 5.2 12.2 0.00 0.00 0.00 50 1016.9
20260906155059 77 186 4.3 11.3 0.00 0.00 0.00 49 1017.0
20260906154604 77 237 7.0 11.3 0.00 0.00 0.00 49 1017.0
20260906154059 77 179 5.2 11.3 0.00 0.00 0.00 49 1017.0
20260906153601 78 158 5.2 17.4 0.00 0.00 0.00 49 1017.0
20260906153106 78 170 5.2 17.4 0.00 0.00 0.00 47 1017.0
20260906152600 79 175 6.1 14.8 0.00 0.00 0.00 46 1017.2
20260906152058 80 165 7.8 14.8 0.00 0.00 0.00 45 1017.2
20260906151606 79 194 5.2 14.8 0.00 0.00 0.00 47 1017.1
20260906151059 79 189 5.2 17.4 0.00 0.00 0.00 45 1017.2
20260906150558 79 157 5.2 19.1 0.00 0.00 0.00 45 1017.3
20260906150113 79 205 7.8 19.1 0.00 0.00 0.00 45 1017.4
20260906145558 79 153 8.7 17.4 0.00 0.00 0.00 45 1017.5
20260906145058 79 183 7.8 19.1 0.00 0.00 0.00 46 1017.6
20260906144608 80 196 7.0 19.1 0.00 0.00 0.00 45 1017.6
20260906144058 80 203 7.8 13.9 0.00 0.00 0.00 44 1017.6
20260906143559 80 125 7.0 13.9 0.00 0.00 0.00 45 1017.6
20260906143108 79 215 6.1 13.0 0.00 0.00 0.00 47 1017.8
20260906142558 79 178 6.1 17.4 0.00 0.00 0.00 46 1017.6
20260906142059 79 201 7.8 17.4 0.00 0.00 0.00 46 1017.7
20260906141607 79 188 7.0 16.5 0.00 0.00 0.00 46 1017.8
20260906141058 79 181 6.1 16.5 0.00 0.00 0.00 45 1017.8
20260906140602 79 126 6.1 15.6 0.00 0.00 0.00 48 1017.9
20260906140108 79 170 6.1 13.0 0.00 0.00 0.00 47 1017.9
20260906135601 79 188 7.0 15.6 0.00 0.00 0.00 48 1018.1
20260906135058 78 202 6.1 15.6 0.00 0.00 0.00 46 1018.1
20260906134604 78 164 7.8 17.4 0.00 0.00 0.00 47 1018.0
20260906134058 78 200 7.8 17.4 0.00 0.00 0.00 49 1018.2
20260906133559 77 182 5.2 14.8 0.00 0.00 0.00 49 1018.2
20260906133138 77 167 6.1 14.8 0.00 0.00 0.00 48 1018.3
20260906132559 78 136 6.1 13.0 0.00 0.00 0.00 47 1018.3
20260906132058 79 191 6.1 13.9 0.00 0.00 0.00 49 1018.3
20260906131606 78 186 6.1 13.9 0.00 0.00 0.00 50 1018.3
20260906131058 77 159 6.1 15.6 0.00 0.00 0.00 50 1018.4
20260906130559 78 177 5.2 17.4 0.00 0.00 0.00 47 1018.5
20260906130119 79 183 9.6 17.4 0.00 0.00 0.00 46 1018.7
20260906125558 79 196 6.1 13.9 0.00 0.00 0.00 49 1018.6
20260906125058 79 167 5.2 16.5 0.00 0.00 0.00 47 1018.8
20260906124608 78 166 8.7 21.7 0.00 0.00 0.00 49 1019.0
20260906124101 79 191 7.8 21.7 0.00 0.00 0.00 47 1019.0
20260906123558 80 211 9.6 19.1 0.00 0.00 0.00 45 1019.1
20260906123104 80 183 9.6 15.6 0.00 0.00 0.00 48 1018.9
20260906122558 80 195 7.8 14.8 0.00 0.00 0.00 47 1019.1
20260906122059 80 169 7.0 16.5 0.00 0.00 0.00 46 1019.1
20260906121602 79 207 6.1 16.5 0.00 0.00 0.00 47 1019.1
20260906121058 79 160 7.8 16.5 0.00 0.00 0.00 46 1019.1
20260906120559 79 195 7.0 13.9 0.00 0.00 0.00 45 1019.2
20260906120105 78 196 6.1 16.5 0.00 0.00 0.00 46 1019.1
20260906115559 78 170 5.2 16.5 0.00 0.00 0.00 49 1019.2
20260906115059 78 194 7.8 16.5 0.00 0.00 0.00 49 1019.4
20260906114607 78 146 6.1 14.8 0.00 0.00 0.00 51 1019.4
20260906114059 77 186 7.0 15.6 0.00 0.00 0.00 52 1019.4
20260906113559 76 198 6.1 15.6 0.00 0.00 0.00 56 1019.5
20260906113104 76 179 7.8 14.8 0.00 0.00 0.00 54 1019.7
20260906112558 76 178 6.1 13.0 0.00 0.00 0.00 58 1019.7
20260906112058 75 166 2.6 13.0 0.00 0.00 0.00 59 1019.7
20260906111618 76 209 6.1 13.0 0.00 0.00 0.00 57 1019.7
20260906111058 76 153 5.2 13.9 0.00 0.00 0.00 57 1019.7
20260906110559 76 237 7.0 13.9 0.00 0.00 0.00 56 1019.7
20260906105559 76 198 5.2 15.6 0.00 0.00 0.00 58 1019.8
20260906105058 76 180 7.8 13.9 0.00 0.00 0.00 59 1020.1
20260906104605 76 184 4.3 13.0 0.00 0.00 0.00 59 1020.1
20260906104058 75 186 5.2 13.9 0.00 0.00 0.00 61 1020.0
20260906103559 75 228 5.2 13.9 0.00 0.00 0.00 62 1020.1
20260906103111 74 141 5.2 13.0 0.00 0.00 0.00 63 1020.2
20260906102602 74 174 7.0 13.0 0.00 0.00 0.00 64 1020.3
20260906102059 73 193 6.1 12.2 0.00 0.00 0.00 65 1020.3
20260906101604 72 188 5.2 12.2 0.00 0.00 0.00 66 1020.5
20260906101058 71 155 4.3 9.6 0.00 0.00 0.00 67 1020.5
20260906100559 71 167 4.3 12.2 0.00 0.00 0.00 67 1020.5
20260906095559 72 184 5.2 12.2 0.00 0.00 0.00 68 1020.6
20260906095059 72 177 4.3 12.2 0.00 0.00 0.00 68 1020.6
20260906094605 72 134 5.2 10.4 0.00 0.00 0.00 69 1020.7
20260906094058 72 192 4.3 10.4 0.00 0.00 0.00 70 1020.6
20260906093559 71 157 6.1 11.3 0.00 0.00 0.00 69 1020.6
20260906093108 71 121 3.5 11.3 0.00 0.00 0.00 70 1020.7
20260906092556 71 198 5.2 12.2 0.00 0.00 0.00 70 1020.6
20260906092101 70 157 5.2 12.2 0.00 0.00 0.00 71 1020.7
20260906091605 70 132 3.5 12.2 0.00 0.00 0.00 71 1020.9
20260906091102 70 163 4.3 11.3 0.00 0.00 0.00 74 1021.1
20260906090557 69 158 3.5 8.7 0.00 0.00 0.00 72 1020.9
20260906090104 69 170 4.3 10.4 0.00 0.00 0.00 74 1021.0
20260906085558 68 123 3.5 10.4 0.00 0.00 0.00 74 1021.1
20260906085059 68 198 4.3 10.4 0.00 0.00 0.00 76 1021.0
20260906084608 68 146 3.5 10.4 0.00 0.00 0.00 75 1021.1
20260906084058 67 130 3.5 7.8 0.00 0.00 0.00 76 1021.2
20260906083604 67 132 4.3 9.6 0.00 0.00 0.00 76 1021.3
20260906083106 66 185 3.5 9.6 0.00 0.00 0.00 76 1021.3
20260906082556 66 119 5.2 9.6 0.00 0.00 0.00 75 1021.3
20260906082059 66 184 4.3 10.4 0.00 0.00 0.00 76 1021.3
20260906081603 66 155 5.2 13.0 0.00 0.00 0.00 76 1021.4
20260906081106 65 148 3.5 13.0 0.00 0.00 0.00 76 1021.3
20260906080601 65 144 4.3 12.2 0.00 0.00 0.00 76 1021.2
20260906080107 65 184 3.5 11.3 0.00 0.00 0.00 77 1021.1
20260906075559 64 126 3.5 9.6 0.00 0.00 0.00 78 1021.0
20260906075100 63 132 5.2 9.6 0.00 0.00 0.00 78 1020.9
20260906074603 63 166 4.3 9.6 0.00 0.00 0.00 79 1020.8
20260906074058 63 159 4.3 9.6 0.00 0.00 0.00 79 1020.9
20260906073559 62 154 3.5 8.7 0.00 0.00 0.00 79 1020.9
20260906073106 62 155 4.3 9.6 0.00 0.00 0.00 80 1021.0
20260906072559 61 165 2.6 9.6 0.00 0.00 0.00 80 1021.0
20260906072056 61 173 4.3 9.6 0.00 0.00 0.00 80 1021.0
20260906071602 61 115 5.2 9.6 0.00 0.00 0.00 80 1021.1
20260906071059 61 139 5.2 9.6 0.00 0.00 0.00 80 1021.0
20260906070559 60 149 4.3 9.6 0.00 0.00 0.00 81 1021.1
20260906070104 60 72 4.3 10.4 0.00 0.00 0.00 82 1021.2
20260906065602 59 96 4.3 10.4 0.00 0.00 0.00 83 1021.2
20260906065059 58 144 5.2 11.3 0.00 0.00 0.00 84 1021.3
20260906064606 58 111 4.3 11.3 0.00 0.00 0.00 84 1021.2
20260906064100 57 119 4.3 9.6 0.00 0.00 0.00 85 1021.1
20260906063602 57 137 3.5 9.6 0.00 0.00 0.00 85 1021.1
20260906063104 57 126 3.5 9.6 0.00 0.00 0.00 85 1021.1
20260906062600 57 144 4.3 9.6 0.00 0.00 0.00 85 1021.3
20260906062059 57 138 4.3 7.0 0.00 0.00 0.00 84 1021.3
20260906061607 57 153 3.5 8.7 0.00 0.00 0.00 84 1021.3
20260906061058 57 104 4.3 8.7 0.00 0.00 0.00 84 1021.4
20260906060559 58 140 2.6 9.6 0.00 0.00 0.00 84 1021.5
20260906060106 58 166 2.6 9.6 0.00 0.00 0.00 84 1021.4
20260906055559 58 130 3.5 8.7 0.00 0.00 0.00 84 1021.5
20260906055059 57 115 1.7 7.0 0.00 0.00 0.00 85 1021.5
20260906054608 57 107 1.7 8.7 0.00 0.00 0.00 85 1021.4
20260906054059 57 157 2.6 8.7 0.00 0.00 0.00 85 1021.7
20260906053559 57 131 1.7 7.0 0.00 0.00 0.00 84 1021.7
20260906053105 57 127 2.6 7.8 0.00 0.00 0.00 84 1021.8
20260906052558 57 119 3.5 7.8 0.00 0.00 0.00 85 1021.7
20260906052057 57 134 2.6 7.8 0.00 0.00 0.00 85 1021.7
20260906051614 57 168 3.5 8.7 0.00 0.00 0.00 85 1021.6
20260906051059 57 104 3.5 8.7 0.00 0.00 0.00 85 1021.8
20260906050601 57 146 2.6 8.7 0.00 0.00 0.00 84 1021.8
20260906050105 57 157 3.5 7.8 0.00 0.00 0.00 84 1021.9
20260906045559 57 123 2.6 7.0 0.00 0.00 0.00 84 1021.8
20260906045103 57 115 1.7 7.0 0.00 0.00 0.00 84 1021.8
20260906044610 57 113 1.7 7.0 0.00 0.00 0.00 84 1022.1
20260906044059 57 144 1.7 7.8 0.00 0.00 0.00 84 1022.1
20260906043556 57 129 1.7 7.8 0.00 0.00 0.00 83 1022.2
20260906043104 57 126 1.7 6.1 0.00 0.00 0.00 83 1022.2
20260906042557 58 136 2.6 6.1 0.00 0.00 0.00 83 1022.3
20260906042056 58 123 1.7 6.1 0.00 0.00 0.00 83 1022.4
20260906041605 58 129 1.7 7.0 0.00 0.00 0.00 83 1022.6
20260906041059 58 123 2.6 7.0 0.00 0.00 0.00 83 1022.4
20260906040559 58 97 2.6 7.8 0.00 0.00 0.00 83 1022.6
20260906040140 58 84 1.7 7.8 0.00 0.00 0.00 83 1022.6
20260906035558 58 114 0.9 6.1 0.00 0.00 0.00 83 1022.7
20260906035056 58 132 1.7 6.1 0.00 0.00 0.00 83 1022.7
20260906034620 58 79 1.7 6.1 0.00 0.00 0.00 84 1022.8
20260906034057 58 143 1.7 6.1 0.00 0.00 0.00 83 1022.8
20260906033556 58 157 1.7 4.3 0.00 0.00 0.00 84 1022.9
20260906033108 58 126 0.9 5.2 0.00 0.00 0.00 84 1023.0
20260906032558 58 133 1.7 5.2 0.00 0.00 0.00 84 1023.3
20260906032100 58 99 1.7 5.2 0.00 0.00 0.00 84 1023.2
20260906031607 58 121 1.7 5.2 0.00 0.00 0.00 84 1023.2
20260906031059 58 164 2.6 5.2 0.00 0.00 0.00 84 1023.4
20260906030600 58 153 1.7 5.2 0.00 0.00 0.00 84 1023.4
20260906030108 58 0 0.9 5.2 0.00 0.00 0.00 84 1023.6
20260906025558 58 127 0.9 3.5 0.00 0.00 0.00 84 1023.5
20260906025059 58 113 1.7 3.5 0.00 0.00 0.00 84 1023.5
20260906024615 58 139 1.7 5.2 0.00 0.00 0.00 84 1023.6
20260906024056 58 147 1.7 5.2 0.00 0.00 0.00 84 1023.5
20260906023559 58 158 0.9 3.5 0.00 0.00 0.00 84 1023.7
20260906023106 58 134 0.9 3.5 0.00 0.00 0.00 84 1023.7
20260906022558 58 109 1.7 5.2 0.00 0.00 0.00 84 1023.7
20260906022059 58 150 0.9 5.2 0.00 0.00 0.00 84 1023.8
20260906021620 58 161 0.9 4.3 0.00 0.00 0.00 84 1023.9
20260906021059 58 0 0.0 3.5 0.00 0.00 0.00 84 1023.8
20260906020559 58 0 0.0 3.5 0.00 0.00 0.00 84 1023.9
20260906020106 58 150 0.9 3.5 0.00 0.00 0.00 84 1024.0
20260906015559 58 146 0.9 3.5 0.00 0.00 0.00 84 1023.9
20260906015058 58 146 0.9 4.3 0.00 0.00 0.00 83 1023.9
20260906014603 58 113 0.9 4.3 0.00 0.00 0.00 82 1023.9
20260906014059 58 150 0.9 3.5 0.00 0.00 0.00 82 1024.0
20260906013602 58 167 1.7 3.5 0.00 0.00 0.00 82 1023.9
20260906013122 58 0 0.9 3.5 0.00 0.00 0.00 81 1023.9
20260906012559 58 106 0.9 4.3 0.00 0.00 0.00 81 1023.9
20260906012059 59 142 1.7 4.3 0.00 0.00 0.00 82 1023.9
20260906011608 58 131 1.7 4.3 0.00 0.00 0.00 81 1024.0
20260906011059 58 137 1.7 4.3 0.00 0.00 0.00 81 1024.2
20260906010556 58 0 1.7 5.2 0.00 0.00 0.00 81 1024.1
20260906010106 58 160 1.7 5.2 0.00 0.00 0.00 81 1024.2
20260906005556 58 130 1.7 7.0 0.00 0.00 0.00 81 1024.3
20260906005058 58 138 2.6 7.0 0.00 0.00 0.00 81 1024.3
20260906004607 58 144 1.7 6.1 0.00 0.00 0.00 82 1024.4
20260906004056 58 114 1.7 4.3 0.00 0.00 0.00 82 1024.4
20260906003556 58 132 0.9 4.3 0.00 0.00 0.00 82 1024.5
20260906003102 58 162 1.7 3.5 0.00 0.00 0.00 82 1024.6
20260906002601 58 146 1.7 3.5 0.00 0.00 0.00 82 1024.7
20260906002059 58 131 1.7 4.3 0.00 0.00 0.00 82 1024.8
20260906001610 58 140 1.7 4.3 0.00 0.00 0.00 82 1024.8
20260906001100 58 133 1.7 4.3 0.00 0.00 0.00 82 1024.9
20260906000559 58 135 1.7 3.5 0.00 0.00 0.00 82 1024.9
20260906000108 58 172 0.9 3.5 0.00 0.00 0.00 82 1024.9
20260905235603 58 132 0.9 6.1 0.00 0.00 0.00 82 1025.1
20260905235059 58 161 2.6 6.1 0.00 0.00 0.00 82 1025.1
20260905234603 58 133 1.7 5.2 0.00 0.00 0.00 82 1025.2
20260905234059 58 131 0.9 4.3 0.00 0.00 0.00 82 1025.3
20260905233557 58 69 0.9 3.5 0.00 0.00 0.00 82 1025.3
20260905233104 58 100 1.7 3.5 0.00 0.00 0.00 81 1025.2
20260905232556 58 126 1.7 5.2 0.00 0.00 0.00 81 1025.3
20260905232058 58 132 1.7 5.2 0.00 0.00 0.00 81 1025.1
20260905231608 58 140 2.6 6.1 0.00 0.00 0.00 81 1025.2
20260905231056 58 153 2.6 6.1 0.00 0.00 0.00 82 1025.1
20260905230556 57 152 1.7 4.3 0.00 0.00 0.00 83 1025.1
20260905230109 57 165 0.9 2.6 0.00 0.00 0.00 84 1025.2
20260905225556 57 152 0.9 3.5 0.00 0.00 0.00 85 1025.2
20260905225056 57 123 0.9 3.5 0.00 0.00 0.00 85 1025.2
20260905224619 57 132 0.9 1.7 0.00 0.00 0.00 85 1025.2
20260905224059 57 48 0.0 1.7 0.00 0.00 0.00 86 1025.2
20260905223600 57 48 0.9 1.7 0.00 0.00 0.00 85 1025.0
20260905223118 57 48 0.0 0.9 0.00 0.00 0.00 85 1025.1
20260905222558 57 0 0.0 1.7 0.00 0.00 0.00 85 1025.1
20260905222056 57 0 0.0 1.7 0.00 0.00 0.00 85 1025.1
20260905221606 57 0 0.0 1.7 0.00 0.00 0.00 85 1025.0
20260905221056 57 48 0.0 1.7 0.00 0.00 0.00 84 1025.1
20260905220556 57 48 0.9 1.7 0.00 0.00 0.00 85 1025.1
20260905220103 57 48 0.0 1.7 0.00 0.00 0.00 84 1025.2
20260905215556 57 0 0.0 1.7 0.00 0.00 0.00 84 1025.3
20260905215100 57 48 0.0 1.7 0.00 0.00 0.00 84 1025.2
20260905214604 57 48 0.0 1.7 0.00 0.00 0.00 84 1025.3
20260905214056 57 0 0.0 1.7 0.00 0.00 0.00 84 1025.4
20260905213559 57 48 0.9 1.7 0.00 0.00 0.00 84 1025.3
20260905213107 57 0 0.0 0.0 0.00 0.00 0.00 84 1025.3
20260905212557 57 0 0.0 0.0 0.00 0.00 0.00 84 1025.5
20260905212058 57 0 0.0 0.0 0.00 0.00 0.00 82 1025.4
20260905211604 57 0 0.0 0.0 0.00 0.00 0.00 81 1025.5
20260905211056 57 0 0.0 0.0 0.00 0.00 0.00 80 1025.4
20260905210556 58 0 0.0 0.0 0.00 0.00 0.00 80 1025.4
20260905210107 58 0 0.0 0.0 0.00 0.00 0.00 81 1025.4
20260905205558 58 0 0.0 1.7 0.00 0.00 0.00 80 1025.3
20260905205056 58 0 0.0 2.6 0.00 0.00 0.00 79 1025.1
20260905204606 59 0 0.9 2.6 0.00 0.00 0.00 79 1025.1
20260905204058 59 48 0.9 2.6 0.00 0.00 0.00 80 1025.1
20260905203600 58 273 0.9 1.7 0.00 0.00 0.00 80 1025.2
20260905203105 58 0 0.0 1.7 0.00 0.00 0.00 80 1025.1
20260905202555 58 273 0.9 1.7 0.00 0.00 0.00 80 1025.1
20260905202056 58 273 0.0 1.7 0.00 0.00 0.00 81 1025.2
20260905201610 58 0 0.0 0.9 0.00 0.00 0.00 80 1025.3
20260905201056 58 0 0.0 0.0 0.00 0.00 0.00 80 1025.2
20260905200556 59 0 0.0 0.9 0.00 0.00 0.00 79 1025.2
20260905200109 59 0 0.0 0.9 0.00 0.00 0.00 78 1025.1
20260905195558 59 273 0.0 1.7 0.00 0.00 0.00 77 1025.2
20260905195059 59 0 0.9 1.7 0.00 0.00 0.00 77 1025.1
20260905194608 59 273 0.9 1.7 0.00 0.00 0.00 77 1025.1
20260905194056 59 0 0.0 0.9 0.00 0.00 0.00 77 1025.1
20260905193555 60 273 0.0 0.9 0.00 0.00 0.00 77 1025.3